FDB225 OMDW-VABB

Flight info

Callsign FDB225
Flight time 2h 35m
Altitude 35000
Route NOLSU3L NOLSU M572 GOMTA M428 MUNGA A777 VAXIM L301 KARKU M638 EXOLU POKON2A
Aircraft B737/M-NIL/C

Departure

Time 2026-04-26 13:19
Airport Al Maktoum International Airport (OMDW)

Arrival

Time 2026-04-26 15:55
Airport Chhatrapati Shivaji Maharaj International Airport (VABB)
Time Latitude Longitude Altitude Speed Heading
2026-04-26 12:46 24.88947 55.16017 121 ft 0 kts 210°
2026-04-26 13:02 24.88952 55.16020 121 ft 2 kts 210°
2026-04-26 13:02 24.88965 55.16029 121 ft 2 kts 210°
2026-04-26 13:02 24.88978 55.16037 121 ft 2 kts 210°
2026-04-26 13:02 24.88991 55.16045 121 ft 2 kts 210°
2026-04-26 13:03 24.89004 55.16053 121 ft 2 kts 210°
2026-04-26 13:03 24.89017 55.16062 121 ft 2 kts 225°
2026-04-26 13:03 24.89024 55.16076 121 ft 2 kts 258°
2026-04-26 13:03 24.89024 55.16093 122 ft 2 kts 289°
2026-04-26 13:04 24.89021 55.16100 122 ft 1 kts 306°
2026-04-26 13:04 24.89018 55.16104 122 ft 0 kts 301°
2026-04-26 13:05 24.89015 55.16109 122 ft 1 kts 325°
2026-04-26 13:05 24.89002 55.16116 122 ft 2 kts 326°
2026-04-26 13:06 24.88991 55.16126 122 ft 0 kts 323°
2026-04-26 13:06 24.88987 55.16129 123 ft 0 kts 304°
2026-04-26 13:06 24.88985 55.16132 123 ft 0 kts 302°
2026-04-26 13:09 24.88987 55.16129 122 ft 1 kts 302°
2026-04-26 13:09 24.88999 55.16108 122 ft 4 kts 301°
2026-04-26 13:09 24.89022 55.16067 121 ft 7 kts 302°
2026-04-26 13:10 24.89053 55.16011 120 ft 9 kts 302°
2026-04-26 13:10 24.89092 55.15942 120 ft 11 kts 302°
2026-04-26 13:10 24.89135 55.15865 120 ft 12 kts 300°
2026-04-26 13:10 24.89182 55.15781 119 ft 13 kts 310°
2026-04-26 13:11 24.89272 55.15773 118 ft 15 kts 29°
2026-04-26 13:11 24.89370 55.15836 116 ft 17 kts 30°
2026-04-26 13:11 24.89421 55.15934 118 ft 16 kts 112°
2026-04-26 13:11 24.89366 55.16038 120 ft 16 kts 121°
2026-04-26 13:12 24.89307 55.16145 120 ft 16 kts 122°
2026-04-26 13:12 24.89247 55.16253 121 ft 16 kts 121°
2026-04-26 13:12 24.89188 55.16359 124 ft 16 kts 122°
2026-04-26 13:12 24.89131 55.16463 126 ft 15 kts 121°
2026-04-26 13:13 24.89080 55.16555 130 ft 12 kts 121°
2026-04-26 13:13 24.89039 55.16630 134 ft 10 kts 122°
2026-04-26 13:13 24.89006 55.16688 136 ft 8 kts 121°
2026-04-26 13:13 24.88979 55.16736 138 ft 6 kts 121°
2026-04-26 13:14 24.88959 55.16773 139 ft 0 kts 120°
2026-04-26 13:14 24.88948 55.16793 140 ft 6 kts 120°
2026-04-26 13:14 24.88916 55.16853 141 ft 11 kts 121°
2026-04-26 13:14 24.88864 55.16947 144 ft 17 kts 121°
2026-04-26 13:15 24.88792 55.17077 150 ft 22 kts 121°
2026-04-26 13:15 24.88703 55.17237 156 ft 26 kts 121°
2026-04-26 13:15 24.88598 55.17427 161 ft 29 kts 118°
2026-04-26 13:15 24.88616 55.17534 163 ft 16 kts 36°
2026-04-26 13:16 24.88682 55.17578 164 ft 2 kts 29°
2026-04-26 13:16 24.88688 55.17582 164 ft 0 kts 29°
2026-04-26 13:17 24.88689 55.17583 164 ft 0 kts 28°
2026-04-26 13:18 24.88714 55.17592 164 ft 3 kts 12°
2026-04-26 13:18 24.88756 55.17594 164 ft 8 kts 355°
2026-04-26 13:18 24.88902 55.17477 160 ft 22 kts 298°
2026-04-26 13:19 24.89113 55.17095 144 ft 97 kts 301°
2026-04-26 13:19 24.89597 55.16219 129 ft 166 kts 301°
2026-04-26 13:19 24.90291 55.15006 361 ft 206 kts 301°
2026-04-26 13:19 24.91076 55.13599 954 ft 230 kts 301°
2026-04-26 13:20 24.91944 55.12035 1639 ft 252 kts 301°
2026-04-26 13:20 24.92890 55.10328 2402 ft 271 kts 301°
2026-04-26 13:20 24.93894 55.08516 3053 ft 291 kts 301°
2026-04-26 13:20 24.94964 55.06581 3006 ft 296 kts 301°
2026-04-26 13:21 24.96175 55.04849 3466 ft 288 kts 317°
2026-04-26 13:21 24.97279 55.03984 3814 ft 290 kts 332°
2026-04-26 13:21 24.99844 55.03200 4490 ft 296 kts 358°
2026-04-26 13:21 25.01888 55.03485 4999 ft 299 kts 17°
2026-04-26 13:22 25.03703 55.04453 5504 ft 300 kts 31°
2026-04-26 13:22 25.05495 55.05695 6023 ft 303 kts 36°
2026-04-26 13:22 25.06929 55.07333 6492 ft 304 kts 56°
2026-04-26 13:22 25.07798 55.09391 6994 ft 306 kts 75°
2026-04-26 13:23 25.08035 55.11636 7483 ft 308 kts 93°
2026-04-26 13:23 25.07816 55.13986 7995 ft 311 kts 89°
2026-04-26 13:23 25.08192 55.16304 8495 ft 313 kts 70°
2026-04-26 13:23 25.08741 55.18549 8982 ft 315 kts 84°
2026-04-26 13:24 25.09134 55.20915 9517 ft 317 kts 77°
2026-04-26 13:24 25.09616 55.23216 9942 ft 322 kts 77°
2026-04-26 13:24 25.10085 55.25446 9953 ft 324 kts 77°
2026-04-26 13:24 25.10612 55.27948 9991 ft 321 kts 77°
2026-04-26 13:25 25.11106 55.30295 9992 ft 319 kts 77°
2026-04-26 13:25 25.11609 55.32686 9993 ft 319 kts 77°
2026-04-26 13:25 25.12015 55.35035 9997 ft 319 kts 80°
2026-04-26 13:25 25.12407 55.37457 10286 ft 315 kts 80°
2026-04-26 13:26 25.12714 55.39787 10851 ft 321 kts 83°
2026-04-26 13:26 25.12995 55.42251 11380 ft 325 kts 83°
2026-04-26 13:26 25.13271 55.44695 11898 ft 328 kts 83°
2026-04-26 13:26 25.13559 55.47203 12425 ft 331 kts 82°
2026-04-26 13:27 25.13886 55.49708 12950 ft 334 kts 82°
2026-04-26 13:27 25.14225 55.52256 13478 ft 336 kts 82°
2026-04-26 13:27 25.14568 55.54789 13999 ft 339 kts 82°
2026-04-26 13:27 25.14918 55.57342 14521 ft 342 kts 82°
2026-04-26 13:28 25.15277 55.59916 14969 ft 346 kts 82°
2026-04-26 13:28 25.15649 55.62569 14988 ft 348 kts 82°
2026-04-26 13:28 25.16017 55.65185 14989 ft 346 kts 82°
2026-04-26 13:28 25.16384 55.67788 15228 ft 342 kts 82°
2026-04-26 13:29 25.16733 55.70374 15856 ft 348 kts 85°
2026-04-26 13:29 25.16904 55.72125 16216 ft 354 kts 85°
2026-04-26 13:29 25.17263 55.75774 16975 ft 364 kts 85°
2026-04-26 13:29 25.17542 55.78546 17573 ft 370 kts 85°
2026-04-26 13:30 25.17828 55.81344 18189 ft 375 kts 85°
2026-04-26 13:30 25.18130 55.84235 18807 ft 380 kts 85°
2026-04-26 13:30 25.18434 55.87104 19406 ft 384 kts 85°
2026-04-26 13:30 25.18752 55.90055 20020 ft 387 kts 85°
2026-04-26 13:31 25.19076 55.93016 20628 ft 391 kts 85°
2026-04-26 13:31 25.19404 55.95984 21225 ft 393 kts 85°
2026-04-26 13:31 25.19737 55.98961 21812 ft 396 kts 85°
2026-04-26 13:31 25.20079 56.01991 22397 ft 398 kts 85°
2026-04-26 13:32 25.20422 56.05004 22973 ft 400 kts 85°
2026-04-26 13:32 25.20771 56.08057 23544 ft 402 kts 85°
2026-04-26 13:32 25.21122 56.11105 24103 ft 404 kts 85°
2026-04-26 13:32 25.21478 56.14202 24659 ft 405 kts 85°
2026-04-26 13:33 25.21632 56.17242 25172 ft 404 kts 93°
2026-04-26 13:33 25.21503 56.20356 25752 ft 404 kts 94°
2026-04-26 13:33 25.21383 56.23412 26294 ft 404 kts 94°
2026-04-26 13:33 25.21259 56.26491 26835 ft 404 kts 94°
2026-04-26 13:34 25.21130 56.29596 27352 ft 404 kts 94°
2026-04-26 13:34 25.20986 56.32679 27747 ft 407 kts 95°
2026-04-26 13:34 25.20797 56.35791 28151 ft 410 kts 95°
2026-04-26 13:34 25.20665 56.37910 28421 ft 411 kts 95°
2026-04-26 13:35 25.20401 56.42068 28959 ft 414 kts 95°
2026-04-26 13:35 25.20195 56.45226 29389 ft 415 kts 95°
2026-04-26 13:35 25.19982 56.48405 29822 ft 416 kts 95°
2026-04-26 13:35 25.19762 56.51586 30241 ft 417 kts 95°
2026-04-26 13:36 25.19536 56.54772 30640 ft 418 kts 95°
2026-04-26 13:36 25.19155 56.57931 30992 ft 419 kts 104°
2026-04-26 13:36 25.18158 56.60965 31422 ft 419 kts 112°
2026-04-26 13:36 25.17033 56.63910 31819 ft 419 kts 112°
2026-04-26 13:37 25.15908 56.66816 32210 ft 420 kts 112°
2026-04-26 13:37 25.14746 56.69793 32614 ft 420 kts 112°
2026-04-26 13:37 25.13591 56.72729 33011 ft 420 kts 112°
2026-04-26 13:37 25.12418 56.75682 33410 ft 420 kts 112°
2026-04-26 13:38 25.11258 56.78580 33801 ft 419 kts 112°
2026-04-26 13:38 25.10067 56.81531 34200 ft 418 kts 112°
2026-04-26 13:38 25.08885 56.84456 34592 ft 417 kts 112°
2026-04-26 13:38 25.07715 56.87358 34864 ft 419 kts 112°
2026-04-26 13:39 25.06517 56.90335 34883 ft 427 kts 112°
2026-04-26 13:39 25.04080 56.96408 34938 ft 443 kts 112°
2026-04-26 13:40 25.01557 57.02717 34972 ft 459 kts 112°
2026-04-26 13:40 24.98985 57.09163 34929 ft 461 kts 112°
2026-04-26 13:41 24.96456 57.15498 34887 ft 458 kts 112°
2026-04-26 13:41 24.93896 57.21913 34884 ft 459 kts 112°
2026-04-26 13:42 24.91330 57.28344 34882 ft 459 kts 112°
2026-04-26 13:42 24.88888 57.34470 34882 ft 459 kts 112°
2026-04-26 13:43 24.86278 57.41015 34882 ft 459 kts 112°
2026-04-26 13:43 24.83722 57.47430 34881 ft 459 kts 112°
2026-04-26 13:44 24.81173 57.53830 34881 ft 459 kts 112°
2026-04-26 13:44 24.78637 57.60198 34880 ft 459 kts 112°
2026-04-26 13:45 24.76104 57.66560 34884 ft 459 kts 112°
2026-04-26 13:45 24.73550 57.72971 34887 ft 459 kts 112°
2026-04-26 13:46 24.70987 57.79408 34886 ft 459 kts 112°
2026-04-26 13:46 24.68857 57.85939 34876 ft 456 kts 100°
2026-04-26 13:47 24.67377 57.92717 34945 ft 467 kts 104°
2026-04-26 13:47 24.65261 57.99559 34987 ft 481 kts 108°
2026-04-26 13:48 24.63046 58.06609 34971 ft 493 kts 108°
2026-04-26 13:48 24.60817 58.13709 34916 ft 495 kts 108°
2026-04-26 13:49 24.58598 58.20781 34884 ft 496 kts 108°
2026-04-26 13:49 24.56366 58.27898 34882 ft 495 kts 108°
2026-04-26 13:50 24.54153 58.34960 34882 ft 495 kts 108°
2026-04-26 13:50 24.51947 58.42003 34882 ft 495 kts 108°
2026-04-26 13:51 24.49718 58.49120 34881 ft 495 kts 108°
2026-04-26 13:51 24.47496 58.56221 34881 ft 495 kts 108°
2026-04-26 13:52 24.45290 58.63275 34880 ft 495 kts 107°
2026-04-26 13:52 24.43103 58.70266 34886 ft 496 kts 108°
2026-04-26 13:53 24.40882 58.77363 34886 ft 496 kts 108°
2026-04-26 13:53 24.38663 58.84461 34886 ft 496 kts 108°
2026-04-26 13:54 24.36452 58.91534 34886 ft 496 kts 108°
2026-04-26 13:54 24.34269 58.98523 34885 ft 496 kts 108°
2026-04-26 13:55 24.31339 59.07909 34884 ft 496 kts 108°
2026-04-26 13:56 24.27648 59.19745 34883 ft 496 kts 108°
2026-04-26 13:56 24.25439 59.26830 34882 ft 496 kts 108°
2026-04-26 13:57 24.23236 59.33904 34882 ft 496 kts 107°
2026-04-26 13:57 24.21026 59.41003 34881 ft 495 kts 107°
2026-04-26 13:58 24.18805 59.48140 34881 ft 495 kts 107°
2026-04-26 13:58 24.16627 59.55143 34880 ft 495 kts 107°
2026-04-26 13:59 24.14401 59.62306 34880 ft 495 kts 107°
2026-04-26 13:59 24.12202 59.69378 34887 ft 496 kts 108°
2026-04-26 14:00 24.07810 59.83510 34886 ft 496 kts 108°
2026-04-26 14:01 24.05598 59.90633 34886 ft 496 kts 108°
2026-04-26 14:01 24.03412 59.97675 34885 ft 496 kts 108°
2026-04-26 14:02 24.01187 60.04847 34885 ft 496 kts 107°
2026-04-26 14:02 23.98981 60.11961 34884 ft 496 kts 107°
2026-04-26 14:03 23.96776 60.19078 34883 ft 496 kts 107°
2026-04-26 14:03 23.94577 60.26175 34883 ft 496 kts 107°
2026-04-26 14:04 23.92374 60.33288 34882 ft 496 kts 107°
2026-04-26 14:04 23.90165 60.40426 34882 ft 496 kts 107°
2026-04-26 14:05 23.88699 60.45162 34881 ft 496 kts 107°
2026-04-26 14:05 23.85766 60.54645 34881 ft 496 kts 107°
2026-04-26 14:06 23.83575 60.61733 34880 ft 496 kts 107°
2026-04-26 14:06 23.81374 60.68855 34888 ft 496 kts 108°
2026-04-26 14:07 23.79180 60.75950 34887 ft 496 kts 108°
2026-04-26 14:07 23.76972 60.83092 34886 ft 496 kts 107°
2026-04-26 14:08 23.75024 60.90237 34898 ft 495 kts 104°
2026-04-26 14:08 23.73188 60.97492 34895 ft 495 kts 104°
2026-04-26 14:09 23.71360 61.04718 34886 ft 495 kts 104°
2026-04-26 14:09 23.69535 61.11932 34884 ft 495 kts 104°
2026-04-26 14:10 23.67714 61.19138 34883 ft 495 kts 104°
2026-04-26 14:10 23.65892 61.26355 34883 ft 495 kts 104°
2026-04-26 14:11 23.63156 61.37194 34882 ft 495 kts 104°
2026-04-26 14:11 23.61446 61.44485 34888 ft 495 kts 102°
2026-04-26 14:12 23.59879 61.51740 34878 ft 495 kts 102°
2026-04-26 14:12 23.58310 61.59016 34881 ft 495 kts 102°
2026-04-26 14:13 23.55954 61.69937 34887 ft 495 kts 102°
2026-04-26 14:14 23.54384 61.77213 34886 ft 495 kts 102°
2026-04-26 14:14 23.52805 61.84531 34886 ft 495 kts 102°
2026-04-26 14:15 23.51234 61.91820 34886 ft 495 kts 102°
2026-04-26 14:15 23.49678 61.99046 34885 ft 495 kts 102°
2026-04-26 14:16 23.48110 62.06332 34884 ft 495 kts 102°
2026-04-26 14:16 23.46535 62.13651 34884 ft 495 kts 102°
2026-04-26 14:17 23.44980 62.20886 34883 ft 495 kts 102°
2026-04-26 14:17 23.43416 62.28169 34883 ft 495 kts 102°
2026-04-26 14:18 23.41862 62.35405 34882 ft 495 kts 102°
2026-04-26 14:18 23.40295 62.42712 34882 ft 495 kts 102°
2026-04-26 14:19 23.38741 62.49958 34881 ft 495 kts 102°
2026-04-26 14:19 23.37179 62.57249 34880 ft 495 kts 102°
2026-04-26 14:20 23.35613 62.64562 34880 ft 495 kts 102°
2026-04-26 14:20 23.34057 62.71821 34886 ft 495 kts 102°
2026-04-26 14:21 23.32497 62.79105 34887 ft 495 kts 102°
2026-04-26 14:21 23.30938 62.86385 34886 ft 495 kts 102°
2026-04-26 14:22 23.29379 62.93669 34885 ft 495 kts 102°
2026-04-26 14:22 23.27823 63.00949 34885 ft 495 kts 102°
2026-04-26 14:23 23.26275 63.08194 34884 ft 495 kts 102°
2026-04-26 14:23 23.24713 63.15511 34884 ft 495 kts 102°
2026-04-26 14:24 23.23163 63.22773 34883 ft 495 kts 102°
2026-04-26 14:24 23.21622 63.29998 34882 ft 495 kts 102°
2026-04-26 14:25 23.20061 63.37322 34882 ft 495 kts 102°
2026-04-26 14:25 23.18520 63.44560 34881 ft 495 kts 102°
2026-04-26 14:26 23.16966 63.51859 34881 ft 495 kts 102°
2026-04-26 14:26 23.15428 63.59092 34880 ft 495 kts 102°
2026-04-26 14:27 23.13879 63.66375 34883 ft 495 kts 102°
2026-04-26 14:27 23.12338 63.73616 34895 ft 495 kts 102°
2026-04-26 14:28 23.10786 63.80914 34887 ft 495 kts 102°
2026-04-26 14:28 23.08981 63.88106 34860 ft 496 kts 110°
2026-04-26 14:29 23.06216 63.94966 34883 ft 497 kts 111°
2026-04-26 14:29 23.03587 64.01851 34887 ft 497 kts 111°
2026-04-26 14:30 23.00954 64.08749 34885 ft 497 kts 111°
2026-04-26 14:30 22.98302 64.15698 34884 ft 497 kts 111°
2026-04-26 14:31 22.95675 64.22583 34883 ft 497 kts 111°
2026-04-26 14:31 22.93044 64.29483 34883 ft 497 kts 111°
2026-04-26 14:32 22.90413 64.36385 34882 ft 497 kts 111°
2026-04-26 14:32 22.87781 64.43293 34881 ft 497 kts 111°
2026-04-26 14:33 22.85153 64.50191 34881 ft 497 kts 111°
2026-04-26 14:33 22.82532 64.57073 34880 ft 497 kts 111°
2026-04-26 14:34 22.79911 64.63959 34880 ft 497 kts 111°
2026-04-26 14:34 22.77284 64.70857 34886 ft 497 kts 111°
2026-04-26 14:35 22.74656 64.77759 34886 ft 497 kts 111°
2026-04-26 14:35 22.72016 64.84694 34886 ft 497 kts 111°
2026-04-26 14:36 22.69402 64.91563 34886 ft 497 kts 111°
2026-04-26 14:36 22.66785 64.98445 34885 ft 497 kts 111°
2026-04-26 14:37 22.64150 65.05373 34884 ft 497 kts 111°
2026-04-26 14:37 22.61534 65.12256 34884 ft 497 kts 111°
2026-04-26 14:38 22.58920 65.19134 34883 ft 497 kts 111°
2026-04-26 14:38 22.56304 65.26021 34883 ft 497 kts 111°
2026-04-26 14:39 22.53673 65.32947 34882 ft 497 kts 111°
2026-04-26 14:39 22.51059 65.39832 34882 ft 497 kts 111°
2026-04-26 14:40 22.48448 65.46711 34881 ft 497 kts 111°
2026-04-26 14:40 22.45841 65.53580 34881 ft 497 kts 110°
2026-04-26 14:41 22.43212 65.60513 34880 ft 497 kts 110°
2026-04-26 14:41 22.40630 65.67319 34886 ft 497 kts 111°
2026-04-26 14:42 22.38022 65.74190 34887 ft 497 kts 111°
2026-04-26 14:42 22.35399 65.81101 34886 ft 497 kts 111°
2026-04-26 14:43 22.32794 65.87969 34886 ft 497 kts 111°
2026-04-26 14:43 22.30168 65.94896 34885 ft 497 kts 111°
2026-04-26 14:44 22.27556 66.01785 34885 ft 497 kts 111°
2026-04-26 14:44 22.24965 66.08622 34884 ft 497 kts 111°
2026-04-26 14:45 22.22356 66.15507 34884 ft 497 kts 111°
2026-04-26 14:45 22.19752 66.22383 34883 ft 497 kts 111°
2026-04-26 14:46 22.17141 66.29279 34883 ft 497 kts 110°
2026-04-26 14:46 22.14536 66.36158 34882 ft 497 kts 110°
2026-04-26 14:47 22.11944 66.43007 34882 ft 497 kts 110°
2026-04-26 14:47 22.09339 66.49894 34881 ft 497 kts 110°
2026-04-26 14:48 22.06735 66.56779 34880 ft 497 kts 110°
2026-04-26 14:48 22.04132 66.63662 34880 ft 497 kts 110°
2026-04-26 14:49 22.01567 66.70442 34897 ft 497 kts 111°
2026-04-26 14:49 21.98964 66.77323 34888 ft 497 kts 111°
2026-04-26 14:50 21.96361 66.84208 34886 ft 497 kts 111°
2026-04-26 14:50 21.93757 66.91096 34886 ft 497 kts 111°
2026-04-26 14:51 21.91151 66.97990 34885 ft 497 kts 111°
2026-04-26 14:51 21.88570 67.04820 34884 ft 497 kts 110°
2026-04-26 14:52 21.85965 67.11717 34884 ft 497 kts 110°
2026-04-26 14:52 21.83383 67.18553 34883 ft 497 kts 110°
2026-04-26 14:53 21.80775 67.25462 34883 ft 497 kts 110°
2026-04-26 14:53 21.78189 67.32313 34882 ft 497 kts 110°
2026-04-26 14:54 21.75602 67.39172 34882 ft 497 kts 110°
2026-04-26 14:54 21.73010 67.46042 34881 ft 497 kts 110°
2026-04-26 14:55 21.70409 67.52941 34880 ft 497 kts 110°
2026-04-26 14:55 21.67834 67.59771 34880 ft 497 kts 110°
2026-04-26 14:56 21.65313 67.66460 34883 ft 497 kts 111°
2026-04-26 14:56 21.62706 67.73373 34887 ft 497 kts 111°
2026-04-26 14:57 21.60102 67.80280 34886 ft 497 kts 110°
2026-04-26 14:57 21.57512 67.87151 34886 ft 497 kts 110°
2026-04-26 14:58 21.54933 67.93993 34885 ft 497 kts 110°
2026-04-26 14:58 21.52343 68.00871 34885 ft 497 kts 110°
2026-04-26 14:59 21.49765 68.07715 34884 ft 497 kts 110°
2026-04-26 14:59 21.47190 68.14554 34884 ft 497 kts 110°
2026-04-26 15:00 21.44599 68.21440 34883 ft 497 kts 110°
2026-04-26 15:00 21.42011 68.28319 34883 ft 497 kts 110°
2026-04-26 15:01 21.39447 68.35135 34882 ft 497 kts 110°
2026-04-26 15:01 21.36857 68.42021 34882 ft 497 kts 110°
2026-04-26 15:02 21.34289 68.48853 34881 ft 497 kts 110°
2026-04-26 15:02 21.31701 68.55739 34881 ft 497 kts 110°
2026-04-26 15:03 21.29136 68.62565 34880 ft 497 kts 110°
2026-04-26 15:03 21.26581 68.69365 34887 ft 497 kts 110°
2026-04-26 15:04 21.24007 68.76212 34886 ft 497 kts 110°
2026-04-26 15:04 21.21412 68.83118 34886 ft 497 kts 110°
2026-04-26 15:05 21.18843 68.89957 34886 ft 497 kts 110°
2026-04-26 15:05 21.16273 68.96800 34885 ft 497 kts 110°
2026-04-26 15:06 21.13688 69.03685 34885 ft 497 kts 110°
2026-04-26 15:06 21.11126 69.10512 34884 ft 497 kts 110°
2026-04-26 15:07 21.07267 69.20795 34883 ft 497 kts 110°
2026-04-26 15:07 21.04706 69.27625 34883 ft 497 kts 110°
2026-04-26 15:08 21.02129 69.34497 34882 ft 497 kts 110°
2026-04-26 15:08 20.99749 69.41406 34883 ft 497 kts 108°
2026-04-26 15:09 20.97428 69.48332 34880 ft 497 kts 108°
2026-04-26 15:09 20.95094 69.55298 34881 ft 497 kts 108°
2026-04-26 15:10 20.93173 69.61031 34880 ft 497 kts 108°
2026-04-26 15:10 20.90474 69.69085 34888 ft 497 kts 108°
2026-04-26 15:11 20.87966 69.75924 34896 ft 497 kts 110°
2026-04-26 15:11 20.85393 69.82791 34890 ft 497 kts 110°
2026-04-26 15:12 20.82818 69.89668 34886 ft 497 kts 110°
2026-04-26 15:12 20.80263 69.96494 34885 ft 497 kts 110°
2026-04-26 15:13 20.77714 70.03305 34885 ft 497 kts 110°
2026-04-26 15:13 20.75150 70.10159 34884 ft 497 kts 110°
2026-04-26 15:14 20.72592 70.16998 34883 ft 497 kts 110°
2026-04-26 15:14 20.70022 70.23870 34883 ft 497 kts 110°
2026-04-26 15:15 20.67466 70.30706 34882 ft 497 kts 110°
2026-04-26 15:15 20.64921 70.37515 34882 ft 497 kts 110°
2026-04-26 15:16 20.62360 70.44369 34881 ft 497 kts 110°
2026-04-26 15:16 20.59813 70.51186 34881 ft 497 kts 110°
2026-04-26 15:17 20.57737 70.56747 34880 ft 497 kts 110°
2026-04-26 15:17 20.54764 70.64709 34880 ft 497 kts 110°
2026-04-26 15:18 20.52259 70.71413 34886 ft 497 kts 110°
2026-04-26 15:18 20.49721 70.78204 34872 ft 488 kts 110°
2026-04-26 15:19 20.48491 70.81489 34725 ft 470 kts 110°
2026-04-26 15:19 20.47300 70.84656 34269 ft 459 kts 110°
2026-04-26 15:19 20.46124 70.87771 33875 ft 448 kts 110°
2026-04-26 15:19 20.44978 70.90816 33460 ft 441 kts 110°
2026-04-26 15:20 20.43850 70.93839 33018 ft 439 kts 110°
2026-04-26 15:20 20.42737 70.96855 32613 ft 439 kts 110°
2026-04-26 15:20 20.41620 70.99906 32243 ft 439 kts 110°
2026-04-26 15:20 20.40528 71.02913 31868 ft 438 kts 110°
2026-04-26 15:21 20.39443 71.05924 31489 ft 436 kts 110°
2026-04-26 15:21 20.38367 71.08935 31107 ft 433 kts 110°
2026-04-26 15:21 20.37306 71.11929 30714 ft 431 kts 110°
2026-04-26 15:21 20.36271 71.14872 30296 ft 429 kts 110°
2026-04-26 15:22 20.35238 71.17833 29858 ft 427 kts 110°
2026-04-26 15:22 20.34207 71.20814 29416 ft 424 kts 110°
2026-04-26 15:22 20.33205 71.23735 28983 ft 422 kts 110°
2026-04-26 15:22 20.32208 71.26664 28553 ft 420 kts 110°
2026-04-26 15:23 20.31229 71.29561 28131 ft 417 kts 110°
2026-04-26 15:23 20.30258 71.32456 27710 ft 416 kts 110°
2026-04-26 15:23 20.29297 71.35342 27293 ft 414 kts 110°
2026-04-26 15:23 20.28347 71.38210 26875 ft 412 kts 110°
2026-04-26 15:24 20.27404 71.41075 26459 ft 410 kts 110°
2026-04-26 15:24 20.26465 71.43943 26044 ft 409 kts 110°
2026-04-26 15:24 20.25542 71.46776 25634 ft 407 kts 110°
2026-04-26 15:24 20.24620 71.49590 25224 ft 405 kts 111°
2026-04-26 15:25 20.23468 71.52319 24781 ft 403 kts 118°
2026-04-26 15:25 20.22534 71.54034 24482 ft 401 kts 123°
2026-04-26 15:25 20.20302 71.57175 23905 ft 398 kts 132°
2026-04-26 15:25 20.18417 71.59250 23501 ft 395 kts 135°
2026-04-26 15:26 20.16495 71.61324 23117 ft 393 kts 135°
2026-04-26 15:26 20.14583 71.63392 22736 ft 392 kts 135°
2026-04-26 15:26 20.12674 71.65462 22354 ft 391 kts 135°
2026-04-26 15:26 20.10810 71.67487 21983 ft 390 kts 135°
2026-04-26 15:27 20.08923 71.69540 21604 ft 388 kts 135°
2026-04-26 15:27 20.07035 71.71600 21223 ft 386 kts 135°
2026-04-26 15:27 20.05182 71.73625 20837 ft 385 kts 135°
2026-04-26 15:27 20.03315 71.75668 20430 ft 384 kts 135°
2026-04-26 15:28 20.01468 71.77692 20018 ft 382 kts 135°
2026-04-26 15:28 19.99640 71.79697 19591 ft 377 kts 135°
2026-04-26 15:28 19.97828 71.81690 19136 ft 371 kts 135°
2026-04-26 15:28 19.96066 71.83627 18682 ft 365 kts 135°
2026-04-26 15:29 19.94324 71.85545 18227 ft 360 kts 135°
2026-04-26 15:29 19.92597 71.87446 17633 ft 359 kts 135°
2026-04-26 15:29 19.89302 71.91074 16113 ft 331 kts 135°
2026-04-26 15:30 19.86251 71.94427 14880 ft 310 kts 135°
2026-04-26 15:30 19.84754 71.96066 14379 ft 310 kts 135°
2026-04-26 15:30 19.83249 71.97709 13829 ft 310 kts 135°
2026-04-26 15:31 19.81706 71.99295 13265 ft 309 kts 137°
2026-04-26 15:31 19.78606 72.02418 11908 ft 309 kts 137°
2026-04-26 15:31 19.77050 72.03973 11189 ft 308 kts 137°
2026-04-26 15:32 19.74998 72.06027 10251 ft 306 kts 137°
2026-04-26 15:32 19.72507 72.08521 8972 ft 288 kts 137°
2026-04-26 15:32 19.71079 72.09951 8220 ft 276 kts 137°
2026-04-26 15:33 19.69714 72.11319 7687 ft 271 kts 137°
2026-04-26 15:33 19.68352 72.12685 7253 ft 271 kts 137°
2026-04-26 15:33 19.66980 72.14059 6833 ft 268 kts 137°
2026-04-26 15:33 19.65664 72.15379 6496 ft 258 kts 137°
2026-04-26 15:34 19.64383 72.16663 6298 ft 245 kts 137°
2026-04-26 15:34 19.63173 72.17878 6142 ft 240 kts 137°
2026-04-26 15:34 19.61959 72.19096 6054 ft 241 kts 137°
2026-04-26 15:34 19.60739 72.20321 6019 ft 244 kts 137°
2026-04-26 15:35 19.59493 72.21571 5980 ft 253 kts 137°
2026-04-26 15:35 19.58138 72.22929 6077 ft 280 kts 137°
2026-04-26 15:35 19.56704 72.24366 6143 ft 292 kts 137°
2026-04-26 15:35 19.55214 72.25857 6204 ft 296 kts 137°
2026-04-26 15:36 19.53727 72.27348 6198 ft 294 kts 137°
2026-04-26 15:36 19.52241 72.28835 6151 ft 294 kts 137°
2026-04-26 15:36 19.50761 72.30317 6100 ft 293 kts 137°
2026-04-26 15:36 19.49282 72.31797 6050 ft 293 kts 137°
2026-04-26 15:37 19.47806 72.33276 6001 ft 292 kts 137°
2026-04-26 15:37 19.46324 72.34759 5951 ft 292 kts 137°
2026-04-26 15:37 19.44845 72.36241 5901 ft 292 kts 137°
2026-04-26 15:37 19.43377 72.37711 5851 ft 292 kts 137°
2026-04-26 15:38 19.41906 72.39185 5801 ft 292 kts 137°
2026-04-26 15:38 19.40438 72.40654 5751 ft 291 kts 137°
2026-04-26 15:38 19.38966 72.42128 5701 ft 291 kts 137°
2026-04-26 15:38 19.37489 72.43607 5651 ft 291 kts 137°
2026-04-26 15:39 19.36019 72.45081 5601 ft 291 kts 137°
2026-04-26 15:39 19.34548 72.46553 5551 ft 291 kts 137°
2026-04-26 15:39 19.33087 72.48016 5501 ft 290 kts 137°
2026-04-26 15:39 19.32611 72.48493 5485 ft 290 kts 137°
2026-04-26 15:40 19.30162 72.50946 5402 ft 290 kts 137°
2026-04-26 15:40 19.28689 72.52422 5352 ft 290 kts 137°
2026-04-26 15:40 19.27243 72.53870 5302 ft 290 kts 136°
2026-04-26 15:40 19.25792 72.55341 5249 ft 290 kts 134°
2026-04-26 15:41 19.24521 72.57008 5190 ft 289 kts 124°
2026-04-26 15:41 19.23549 72.58860 5136 ft 288 kts 115°
2026-04-26 15:41 19.22901 72.60809 5021 ft 271 kts 104°
2026-04-26 15:41 19.22609 72.62727 4789 ft 256 kts 94°
2026-04-26 15:42 19.22601 72.64546 4559 ft 247 kts 89°
2026-04-26 15:42 19.22620 72.66335 4388 ft 247 kts 90°
2026-04-26 15:42 19.22642 72.68125 4258 ft 238 kts 90°
2026-04-26 15:42 19.22662 72.69829 4066 ft 227 kts 90°
2026-04-26 15:43 19.22683 72.71472 3911 ft 224 kts 90°
2026-04-26 15:43 19.22703 72.73131 3803 ft 226 kts 90°
2026-04-26 15:43 19.22745 72.76471 3610 ft 228 kts 90°
2026-04-26 15:44 19.22765 72.78127 3510 ft 227 kts 90°
2026-04-26 15:44 19.22807 72.81453 3310 ft 226 kts 90°
2026-04-26 15:44 19.22827 72.83100 3210 ft 226 kts 90°
2026-04-26 15:45 19.22868 72.86301 3022 ft 205 kts 90°
2026-04-26 15:45 19.22887 72.87753 3014 ft 193 kts 90°
2026-04-26 15:46 19.22926 72.90626 3070 ft 199 kts 90°
2026-04-26 15:46 19.22946 72.92082 3068 ft 200 kts 90°
2026-04-26 15:46 19.22965 72.93537 3067 ft 198 kts 90°
2026-04-26 15:46 19.22972 72.94023 3058 ft 195 kts 90°
2026-04-26 15:47 19.23004 72.96322 3065 ft 186 kts 90°
2026-04-26 15:47 19.23042 72.99082 3069 ft 188 kts 90°
2026-04-26 15:47 19.23061 73.00456 3068 ft 188 kts 89°
2026-04-26 15:48 19.22974 73.01833 3064 ft 188 kts 102°
2026-04-26 15:48 19.22560 73.03133 3068 ft 187 kts 117°
2026-04-26 15:48 19.21849 73.04275 3068 ft 187 kts 131°
2026-04-26 15:48 19.20875 73.05194 3068 ft 187 kts 146°
2026-04-26 15:49 19.19729 73.05805 3068 ft 186 kts 161°
2026-04-26 15:49 19.18470 73.06084 3068 ft 186 kts 176°
2026-04-26 15:49 19.17181 73.06107 3071 ft 186 kts 180°
2026-04-26 15:49 19.15900 73.06112 3068 ft 186 kts 180°
2026-04-26 15:50 19.14617 73.06117 3080 ft 181 kts 180°
2026-04-26 15:50 19.13405 73.05999 3047 ft 173 kts 194°
2026-04-26 15:50 19.12296 73.05540 3067 ft 174 kts 209°
2026-04-26 15:50 19.11323 73.04752 3069 ft 175 kts 225°
2026-04-26 15:51 19.10604 73.03726 3068 ft 175 kts 241°
2026-04-26 15:51 19.10175 73.02518 3066 ft 175 kts 257°
2026-04-26 15:51 19.10077 73.01250 3069 ft 176 kts 273°
2026-04-26 15:51 19.10306 72.99966 3095 ft 175 kts 283°
2026-04-26 15:52 19.10410 72.98724 3249 ft 171 kts 259°
2026-04-26 15:52 19.10154 72.97504 2964 ft 173 kts 258°
2026-04-26 15:52 19.09967 72.96255 2587 ft 172 kts 257°
2026-04-26 15:52 19.09811 72.95418 2293 ft 172 kts 257°
2026-04-26 15:53 19.09342 72.93816 1633 ft 175 kts 249°
2026-04-26 15:53 19.08991 72.92619 1250 ft 166 kts 257°
2026-04-26 15:53 19.08894 72.91438 908 ft 158 kts 273°
2026-04-26 15:53 19.08953 72.90289 693 ft 155 kts 270°
2026-04-26 15:54 19.08941 72.89166 364 ft 150 kts 267°
2026-04-26 15:54 19.08898 72.88102 181 ft 140 kts 268°
2026-04-26 15:54 19.08888 72.87118 33 ft 128 kts 269°
2026-04-26 15:54 19.08864 72.86240 33 ft 99 kts 264°
2026-04-26 15:55 19.08864 72.85847 28 ft 37 kts 272°
2026-04-26 15:55 19.08906 72.85596 26 ft 32 kts 293°
2026-04-26 15:55 19.09006 72.85414 28 ft 25 kts 334°
2026-04-26 15:55 19.09142 72.85367 31 ft 11 kts 342°
2026-04-26 15:56 19.09149 72.85365 31 ft 0 kts 344°